This is the latest recevied weather packets stored in our database for station/object OK2VOP-6. If no packets are shown the sender has not sent any weather packets the latest 10 day(s).
| Time | Temp. | Humidity | Pressure | Rain* | Wind** | Luminosity | Snow |
|---|---|---|---|---|---|---|---|
| 1788212000 | 20.56° C | 36% | - | 0 mm | - | - | - |
| 1788210796 | 21.67° C | 33% | - | 0 mm | - | - | - |
| 1788209591 | 22.22° C | 27% | - | 0 mm | - | - | - |
| 1788208386 | 22.22° C | 25% | - | 0 mm | - | - | - |
| 1788207181 | 22.22° C | 24% | - | 0 mm | - | - | - |
| 1788205976 | 22.22° C | 24% | - | 0 mm | - | - | - |
| 1788204771 | 22.78° C | 24% | - | 0 mm | - | - | - |
| 1788203567 | 22.78° C | 24% | - | 0 mm | - | - | - |
| 1788202362 | 22.78° C | 24% | - | 0 mm | - | - | - |
| 1788201157 | 22.78° C | 24% | - | 0 mm | - | - | - |
| 1788199952 | 23.33° C | 23% | - | 0 mm | - | - | - |
| 1788198748 | 23.89° C | 23% | - | 0 mm | - | - | - |
| 1788197543 | 25° C | 22% | - | 0 mm | - | - | - |
| 1788196338 | 25.56° C | 20% | - | 0 mm | - | - | - |
| 1788195133 | 26.67° C | 22% | - | 0 mm | - | - | - |
| 1788193928 | 27.22° C | 20% | - | 0 mm | - | - | - |
| 1788192724 | 27.78° C | 20% | - | 0 mm | - | - | - |
| 1788191518 | 28.33° C | 21% | - | 0 mm | - | - | - |
| 1788190313 | 26.67° C | 31% | - | 0 mm | - | - | - |
| 1788189109 | 26.67° C | 30% | - | 0 mm | - | - | - |
| 1788187904 | 28.33° C | 28% | - | 0 mm | - | - | - |
| 1788186699 | 29.44° C | 27% | - | 0 mm | - | - | - |
| 1788185494 | 27.78° C | 29% | - | 0 mm | - | - | - |
| 1788184289 | 27.22° C | 31% | - | 0 mm | - | - | - |
| 1788183084 | 28.33° C | 29% | - | 0 mm | - | - | - |
* Rain latest hour (hover to see other rain measurements)
** Current wind speed in m/s (hover to see current wind gust speed)